TimeCST,TemperatureF,Dew PointF,Humidity,Sea Level PressureIn,VisibilityMPH,Wind Direction,Wind SpeedMPH,Gust SpeedMPH,PrecipitationIn,Events,Conditions,WindDirDegrees,DateUTC
12:54 AM,30.9,26.1,82,29.91,10.0,WNW,10.4,-,N/A,,Overcast,300,2014-01-12 06:54:00
1:54 AM,30.9,26.1,82,29.91,10.0,West,6.9,-,N/A,,Overcast,280,2014-01-12 07:54:00
2:54 AM,30.9,26.1,82,29.94,10.0,West,9.2,-,N/A,,Overcast,270,2014-01-12 08:54:00
3:54 AM,30.0,26.1,85,29.92,10.0,West,3.5,-,N/A,,Overcast,280,2014-01-12 09:54:00
4:54 AM,28.0,25.0,88,29.94,10.0,Calm,Calm,-,N/A,,Mostly Cloudy,0,2014-01-12 10:54:00
5:03 AM,28.4,24.8,86,29.92,10.0,SW,3.5,-,N/A,,Scattered Clouds,220,2014-01-12 11:03:00
5:54 AM,26.1,24.1,92,29.96,10.0,South,4.6,-,N/A,,Clear,180,2014-01-12 11:54:00
6:54 AM,28.0,24.1,85,29.95,10.0,SSE,6.9,-,N/A,,Clear,160,2014-01-12 12:54:00
7:54 AM,30.0,26.1,85,29.95,9.0,South,8.1,-,N/A,,Clear,170,2014-01-12 13:54:00
8:54 AM,32.0,28.9,88,29.97,10.0,South,11.5,-,N/A,,Clear,180,2014-01-12 14:54:00
9:54 AM,36.0,30.0,79,29.95,10.0,South,17.3,-,N/A,,Clear,180,2014-01-12 15:54:00
10:54 AM,39.0,32.0,76,29.92,10.0,South,16.1,-,N/A,,Clear,180,2014-01-12 16:54:00
11:54 AM,42.1,33.1,70,29.87,10.0,South,15.0,24.2,N/A,,Clear,170,2014-01-12 17:54:00
12:54 PM,44.1,32.0,63,29.81,10.0,South,19.6,28.8,N/A,,Clear,170,2014-01-12 18:54:00
1:54 PM,46.0,33.1,61,29.79,10.0,South,17.3,29.9,N/A,,Clear,170,2014-01-12 19:54:00
2:54 PM,46.9,34.0,61,29.75,10.0,South,20.7,27.6,N/A,,Clear,170,2014-01-12 20:54:00
3:54 PM,46.9,34.0,61,29.74,10.0,South,19.6,29.9,N/A,,Clear,170,2014-01-12 21:54:00
4:54 PM,45.0,34.0,65,29.72,10.0,South,24.2,31.1,N/A,,Clear,170,2014-01-12 22:54:00
5:54 PM,44.1,32.0,63,29.73,10.0,South,21.9,29.9,N/A,,Clear,170,2014-01-12 23:54:00
6:54 PM,44.1,32.0,63,29.74,10.0,South,17.3,25.3,N/A,,Clear,190,2014-01-13 00:54:00
7:54 PM,44.1,32.0,63,29.75,10.0,South,18.4,31.1,N/A,,Clear,190,2014-01-13 01:54:00
8:54 PM,43.0,32.0,65,29.74,10.0,South,18.4,26.5,N/A,,Clear,180,2014-01-13 02:54:00
9:54 PM,42.1,32.0,67,29.73,10.0,South,12.7,21.9,N/A,,Clear,190,2014-01-13 03:54:00
10:54 PM,41.0,32.0,70,29.71,10.0,South,12.7,-,N/A,,Clear,180,2014-01-13 04:54:00
11:54 PM,41.0,32.0,70,29.69,10.0,South,17.3,-,N/A,,Clear,190,2014-01-13 05:54:00